[[{"header":{"parameterUnit":"m.s-1","parameterCategory":2,"la1":30.2991,"la2":30.254,"lo1":-89.0895,"lo2":-89.0444,"dy":0.0017,"dx":0.0017,"nx":28,"ny":28,"refTime":"2023-08-08T21:00:00:Z","depth":"0","parameterNumber":2,"parameterNumberName":"U-component_of_CURRENTS"},"data":[0,0,0,0,0,0,0,0,0,0,0,0,0,0,0,0,0,0,0,0,0,0,0,0,0,0,0,0,0,0,0,0,0,0,0,0,0,0,0,0,0,0,0,0,0,0,0,0,0,0,0,0,0,0,0,0,0,0,0.3518,0.3519,0,0.3527,0.3527,0.3527,0.3503,0.3502,0.3502,0.3501,0.3585,0.3588,0.3591,0,0,0,0,0,0,0,0,0,0,0,0,0,0.3473,0.3473,0.3518,0.3519,0.3519,0.3527,0.3527,0.3527,0.3503,0.3502,0.3501,0.3501,0.3584,0.3587,0.3591,0,0,0,0,0,0,0,0,0,0,0,0,0,0.3487,0.3474,0.3518,0.3509,0.3508,0.3527,0.3527,0.3527,0.3503,0.3502,0.3501,0.35,0.3583,0.3587,0.3591,0.3636,0,0,0.3604,0.3606,0,0,0,0,0,0,0,0,0.3486,0.3488,0.351,0.351,0.3509,0.3514,0.3542,0.3568,0.3503,0.3503,0.3501,0.35,0.357,0.3575,0.3576,0.364,0.3643,0.3604,0.3607,0.3609,0.361,0,0,0,0,0,0,0,0.3485,0.3488,0.352,0.351,0.351,0.3502,0.3502,0.3546,0.3542,0.3503,0.3502,0.3506,0.357,0.3572,0.3578,0.3644,0.3604,0.3608,0.3611,0.3612,0.3784,0.3786,0,0,0,0,0,0,0.3489,0.3487,0.352,0.3521,0.3497,0.3503,0.3504,0.3512,0.354,0.3543,0.3506,0.3505,0.3565,0.3573,0.3581,0.3652,0.3609,0.3613,0.3615,0.3782,0.3785,0.3787,0,0,0,0,0,0,0.3488,0.3492,0.352,0.3505,0.3508,0.3505,0.3514,0.3513,0.3515,0.3542,0.3546,0.351,0.3564,0.3575,0.3626,0.3655,0.3615,0.3618,0.378,0.3783,0.3786,0.3785,0,0,0,0,0,0,0.3486,0.3491,0.3498,0.3505,0.3509,0.3535,0.3515,0.3514,0.352,0.3517,0.3547,0.3553,0.3564,0.3619,0.363,0.366,0.3622,0.3777,0.3781,0.3785,0.3783,0.3788,0.3792,0,0,0,0,0,0.3485,0.3499,0.3499,0.3503,0.3519,0.3535,0.3537,0.353,0.3521,0.3528,0.355,0.3552,0.3651,0.3624,0.3636,0.3668,0.3775,0.378,0.3785,0.3781,0.3787,0.3792,0,0,0,0,0,0,0.3485,0.3498,0.3498,0.3516,0.3527,0.3532,0.3537,0.3536,0.3557,0.3558,0.3576,0.3585,0.3656,0.3663,0.3632,0.3732,0.3716,0.3723,0.3709,0.3716,0.372,0.377,0.3625,0,0,0,0,0,0.349,0.3503,0.3514,0.353,0.3534,0.3537,0.3543,0.3543,0.3562,0.3567,0.3584,0.3621,0.3686,0.3696,0.3754,0.3792,0.3879,0.3824,0.3829,0.3832,0.3884,0.4018,0.404,0.3802,0.3802,0.3802,0,0,0.3498,0.3505,0.3514,0.3531,0.3535,0.3546,0.3538,0.3552,0.3569,0.3579,0.3605,0.3654,0.3709,0.3766,0.3795,0.3766,0.3949,0.3838,0.3841,0.3891,0.4026,0.4049,0.407,0.3805,0.3805,0.3804,0,0,0.3516,0.3523,0.3537,0.3541,0.3552,0.3558,0.3565,0.3573,0.3584,0.3618,0.3653,0.373,0.3763,0.3833,0.387,0.3943,0.3992,0.3932,0.3968,0.4096,0.4118,0.4137,0.4285,0.4318,0.3905,0.3905,0.3905,0,0.3529,0.3538,0.3545,0.3551,0.3554,0.3564,0.3575,0.3595,0.362,0.3648,0.3628,0.377,0.3817,0.3935,0.396,0.396,0.4033,0.393,0.4104,0.4125,0.4145,0.4292,0.4329,0.3905,0.3905,0.3905,0.3905,0,0.3552,0.3553,0.3559,0.3569,0.3577,0.359,0.3611,0.3633,0.3643,0.3668,0.3778,0.3853,0.3938,0.3961,0.3983,0.4143,0.4152,0.4113,0.4085,0.4169,0.4319,0.4357,0.3906,0.3906,0.3906,0.3905,0,0,0.3604,0.3581,0.3581,0.3575,0.3584,0.3595,0.3632,0.3679,0.3717,0.3765,0.3847,0.3975,0.4018,0.4071,0.4115,0.4225,0.444,0.4219,0.4225,0.4363,0.474,0.4748,0.479,0.4404,0.441,0.4415,0.479,0,0.3622,0.3617,0.3607,0.3612,0.3613,0.3624,0.3653,0.37,0.3744,0.3825,0.3944,0.405,0.4052,0.4114,0.4226,0.4411,0.4538,0.4345,0.4645,0.4656,0.4648,0.4834,0.4588,0.49,0.4827,0.4833,0.4838,0,0.366,0.364,0.3637,0.3622,0.3625,0.3632,0.3684,0.3715,0.3832,0.3877,0.3997,0.4087,0.4312,0.4277,0.4633,0.4496,0.4638,0.4759,0.4773,0.4819,0.4735,0.4806,0.4973,0.4738,0.4897,0.4892,0.4888,0,0.3697,0.3672,0.3664,0.3657,0.3645,0.3656,0.3663,0.3736,0.3781,0.3942,0.401,0.4231,0.4366,0.4594,0.4825,0.4752,0.52,0.5123,0.5271,0.5273,0.5153,0.5134,0.5132,0.5388,0.5388,0.5386,0.5385,0,0.3731,0.3725,0.3672,0.3668,0.3667,0.3659,0.3699,0.3739,0.3833,0.3925,0.4045,0.4188,0.4447,0.4695,0.4901,0.523,0.5267,0.5372,0.5398,0.5146,0.5122,0.4981,0.4827,0.5401,0.5397,0.5395,0.5392,0,0.3781,0.3749,0.3734,0.3695,0.3686,0.3689,0.3697,0.3737,0.3811,0.3951,0.4022,0.4225,0.4565,0.4816,0.5217,0.5327,0.5489,0.5724,0.5426,0.5411,0.5332,0.5187,0.524,0.5112,0.6014,0.6017,0.602,0,0.3804,0.38,0.3752,0.3736,0.3713,0.3707,0.3713,0.3746,0.3798,0.3991,0.408,0.4387,0.4603,0.5159,0.5435,0.5826,0.5586,0.5801,0.5641,0.5376,0.5234,0.5038,0.4908,0.5491,0.5488,0.5487,0.5485,0,0.3837,0.382,0.3793,0.3765,0.3751,0.3738,0.3748,0.3776,0.3858,0.3967,0.4165,0.435,0.481,0.507,0.55,0.5717,0.5462,0.5783,0.5569,0.4919,0.4647,0.4513,0.5204,0.547,0.5471,0.5472,0.5473,0.5474,0.3852,0.3838,0.3805,0.3774,0.3764,0.3753,0.3722,0.3774,0.3844,0.3959,0.417,0.4349,0.4635,0.5212,0.5412,0.5458,0.5447,0.5321,0.5211,0.5075,0.4801,0.5496,0.5731,0.5734,0.5736,0.5739,0.5741,0,0.3831,0.3819,0.381,0.376,0.3735,0.3738,0.3731,0.369,0.3742,0.3915,0.406,0.4225,0.4445,0.4702,0.4895,0.4828,0.4698,0.4695,0.4275,0.4214,0.4894,0.4709,0.4653,0.4654,0.4654,0.4654,0.4654,0.4655,0.3815,0.379,0.3779,0.3726,0.3695,0.3621,0.3588,0.3561,0.362,0.364,0.3683,0.3806,0.3992,0.4147,0.4138,0.4126,0.3801,0.3695,0.3712,0.4035,0.408,0.4122,0.3912,0.369,0.3689,0.2878,0.2871,0.2865]},{"header":{"parameterUnit":"m.s-1","parameterCategory":2,"la1":30.2991,"la2":30.254,"lo1":-89.0895,"lo2":-89.0444,"dy":0.0017,"dx":0.0017,"nx":28,"ny":28,"refTime":"2023-08-08T21:00:00:Z","depth":"0","parameterNumber":3,"parameterNumberName":"V-component_of_CURRENTS"},"data":[0,0,0,0,0,0,0,0,0,0,0,0,0,0,0,0,0,0,0,0,0,0,0,0,0,0,0,0,0,0,0,0,0,0,0,0,0,0,0,0,0,0,0,0,0,0,0,0,0,0,0,0,0,0,0,0,0,0,0.0601,0.0601,0,0.0597,0.0597,0.0597,0.0551,0.055,0.0549,0.0548,0.0435,0.0433,0.0431,0,0,0,0,0,0,0,0,0,0,0,0,0,0.058,0.0581,0.0601,0.0601,0.0601,0.0597,0.0597,0.0597,0.0551,0.055,0.0548,0.0547,0.0435,0.0433,0.0431,0,0,0,0,0,0,0,0,0,0,0,0,0,0.0584,0.0581,0.0601,0.0578,0.0575,0.0597,0.0597,0.0597,0.0552,0.055,0.0548,0.0546,0.0436,0.0433,0.0431,0.0449,0,0,0.0422,0.0421,0,0,0,0,0,0,0,0,0.0584,0.0585,0.0581,0.0579,0.0577,0.0572,0.0548,0.0542,0.0552,0.0561,0.0548,0.0546,0.0472,0.0466,0.0471,0.0444,0.0439,0.0422,0.042,0.0419,0.0418,0,0,0,0,0,0,0,0.0584,0.0585,0.06,0.0581,0.0579,0.057,0.0569,0.0547,0.0525,0.056,0.0557,0.0556,0.047,0.0474,0.0468,0.0437,0.0422,0.0419,0.0418,0.0417,0.0414,0.0415,0,0,0,0,0,0,0.0585,0.0585,0.06,0.06,0.0575,0.0572,0.057,0.0576,0.0528,0.0519,0.0558,0.0554,0.048,0.0471,0.0464,0.0498,0.0419,0.0416,0.0415,0.0412,0.0414,0.0416,0,0,0,0,0,0,0.0585,0.0587,0.06,0.0591,0.0592,0.0574,0.0581,0.0577,0.058,0.0527,0.0516,0.0564,0.0478,0.0468,0.0466,0.0492,0.0415,0.0412,0.041,0.0413,0.0415,0.0555,0,0,0,0,0,0,0.0585,0.0587,0.0597,0.0592,0.0593,0.0622,0.0582,0.0578,0.0582,0.0577,0.0529,0.0517,0.0476,0.0471,0.0463,0.0487,0.041,0.0408,0.0411,0.0414,0.0549,0.0562,0.0574,0,0,0,0,0,0.0584,0.0603,0.0598,0.06,0.0606,0.0623,0.0624,0.0604,0.0584,0.0598,0.0574,0.0518,0.0483,0.0471,0.0461,0.0484,0.0406,0.041,0.0414,0.0543,0.056,0.0574,0,0,0,0,0,0,0.0594,0.0601,0.0594,0.0613,0.0622,0.0615,0.0625,0.0615,0.0611,0.0601,0.0548,0.0537,0.0545,0.0498,0.0485,0.0492,0.0432,0.0434,0.0533,0.0548,0.0561,0.0581,0.0408,0,0,0,0,0,0.0605,0.0624,0.0625,0.0643,0.0647,0.064,0.0645,0.0636,0.0629,0.0625,0.0597,0.0565,0.0556,0.0539,0.052,0.0526,0.0485,0.0531,0.0544,0.0555,0.0565,0.054,0.0551,0.0428,0.0428,0.0427,0,0,0.0614,0.062,0.063,0.0647,0.0649,0.0671,0.0639,0.0654,0.0677,0.0613,0.0635,0.0614,0.057,0.0585,0.0582,0.0545,0.057,0.0559,0.0569,0.0573,0.0545,0.0557,0.0567,0.043,0.043,0.0429,0,0,0.064,0.0648,0.0671,0.0685,0.0696,0.0699,0.0707,0.0712,0.0717,0.0742,0.0707,0.0714,0.0682,0.0674,0.066,0.0731,0.0646,0.0707,0.078,0.0756,0.0766,0.0774,0.0747,0.0752,0.0705,0.0705,0.0705,0,0.0647,0.0678,0.0681,0.0706,0.0725,0.0716,0.0748,0.0761,0.0768,0.0789,0.0759,0.0768,0.0731,0.0764,0.0787,0.0761,0.0724,0.0728,0.0773,0.078,0.0786,0.0757,0.076,0.0712,0.0711,0.071,0.071,0,0.0686,0.0716,0.0732,0.0765,0.079,0.0817,0.0835,0.0866,0.087,0.0882,0.0923,0.0898,0.0902,0.0892,0.0859,0.0892,0.0845,0.0801,0.0738,0.0808,0.0772,0.0773,0.0722,0.072,0.0718,0.0716,0,0,0.0682,0.0747,0.0751,0.0786,0.0825,0.0851,0.0907,0.0959,0.1006,0.1014,0.1082,0.1072,0.1064,0.1049,0.1015,0.0993,0.101,0.0917,0.0912,0.0897,0.095,0.092,0.0916,0.0965,0.0965,0.0966,0.0911,0,0.0708,0.0771,0.08,0.0871,0.0909,0.0941,0.1,0.1049,0.1084,0.1151,0.1149,0.1194,0.1121,0.1141,0.1111,0.1055,0.1017,0.1029,0.0878,0.0874,0.0844,0.0919,0.0903,0.0853,0.0911,0.0911,0.0911,0,0.0734,0.0776,0.0848,0.0942,0.0961,0.1004,0.1106,0.1159,0.1247,0.128,0.1324,0.1331,0.1355,0.1267,0.1187,0.1194,0.1079,0.1009,0.1004,0.0927,0.0846,0.0789,0.0852,0.0577,0.0912,0.0912,0.0912,0,0.0736,0.0814,0.0876,0.0904,0.1001,0.1049,0.1103,0.1195,0.1268,0.1374,0.145,0.1455,0.1485,0.1369,0.1247,0.1214,0.1135,0.1067,0.0923,0.0919,0.0853,0.0843,0.0638,0.0973,0.0974,0.0974,0.0974,0,0.0765,0.0818,0.0879,0.0918,0.1003,0.1064,0.1169,0.1237,0.1355,0.1476,0.1514,0.1623,0.1505,0.1466,0.1306,0.1145,0.1175,0.0958,0.0913,0.0903,0.0897,0.061,0.0508,0.0972,0.0972,0.0972,0.0973,0,0.0788,0.0822,0.0898,0.0983,0.101,0.1075,0.1205,0.1292,0.1403,0.1571,0.1626,0.1741,0.1728,0.1584,0.1418,0.1232,0.0948,0.0981,0.0984,0.0941,0.0555,0.0465,0.0282,0.0222,0.0834,0.0833,0.0833,0,0.0823,0.0856,0.0931,0.0975,0.1018,0.1109,0.1185,0.1298,0.1409,0.1662,0.1763,0.1838,0.194,0.1715,0.1418,0.1149,0.0926,0.0892,0.0823,0.055,0.0415,0.035,0.0309,0.0789,0.0788,0.0787,0.0786,0,0.0886,0.0895,0.0951,0.1026,0.1095,0.1189,0.131,0.1403,0.1583,0.1769,0.2022,0.2144,0.1992,0.1788,0.1407,0.1189,0.0747,0.0863,0.0578,0.0374,0.0295,0.0211,0.0799,0.0778,0.0779,0.078,0.078,0.0781,0.0928,0.0965,0.1018,0.1094,0.1177,0.1295,0.1394,0.1565,0.1785,0.2114,0.2193,0.2425,0.2046,0.1592,0.1281,0.0616,0.0679,0.0372,0.029,0.025,0.0179,0.0757,0.0685,0.0685,0.0686,0.0686,0.0686,0,0.0974,0.1015,0.1092,0.1189,0.129,0.1322,0.1507,0.1655,0.1943,0.2241,0.2493,0.24,0.1933,0.1405,0.0542,0.0086,-0.0028,-0.0171,-0.03,-0.0307,0.0181,0.016,-0.0025,-0.0025,-0.0025,-0.0024,-0.0024,-0.0024,0.1003,0.1068,0.1102,0.1267,0.1348,0.1507,0.1618,0.1874,0.211,0.2455,0.259,0.2667,0.2182,0.0692,-0.034,-0.0544,-0.0806,-0.0851,-0.0965,-0.0711,-0.0669,-0.0629,-0.068,-0.1038,-0.1039,-0.1418,-0.1423,-0.1426]}],[{"header":{"parameterUnit":"m.s-1","parameterCategory":2,"la1":30.2991,"la2":30.254,"lo1":-89.0895,"lo2":-89.0444,"dy":0.0017,"dx":0.0017,"nx":28,"ny":28,"refTime":"2023-08-08T21:00:00:Z","depth":"2","parameterNumber":2,"parameterNumberName":"U-component_of_CURRENTS"},"data":[0,0,0,0,0,0,0,0,0,0,0,0,0,0,0,0,0,0,0,0,0,0,0,0,0,0,0,0,0,0,0,0,0,0,0,0,0,0,0,0,0,0,0,0,0,0,0,0,0,0,0,0,0,0,0,0,0,0,0.1812,0.1813,0,0.1926,0.1927,0.1929,0.2038,0.2039,0.204,0.2042,0.2199,0.2202,0.2205,0,0,0,0,0,0,0,0,0,0,0,0,0,0.1662,0.1665,0.1812,0.1813,0.1814,0.1926,0.1927,0.1929,0.2038,0.2039,0.2041,0.2042,0.2198,0.2201,0.2205,0,0,0,0,0,0,0,0,0,0,0,0,0,0.1748,0.1665,0.1812,0.1881,0.1889,0.1925,0.1927,0.1929,0.2037,0.2039,0.2041,0.2043,0.2197,0.2201,0.2205,0.2194,0,0,0.2219,0.2221,0,0,0,0,0,0,0,0,0.1743,0.1753,0.187,0.1877,0.1885,0.1969,0.1932,0.202,0.2037,0.1982,0.2042,0.2044,0.2123,0.2134,0.2152,0.2202,0.2208,0.2219,0.2222,0.2224,0.2225,0,0,0,0,0,0,0,0.1737,0.1749,0.1858,0.1871,0.188,0.1898,0.1912,0.1949,0.2042,0.1987,0.1995,0.2005,0.2128,0.2148,0.2157,0.2211,0.2219,0.2223,0.2226,0.2228,0.2476,0.248,0,0,0,0,0,0,0.172,0.1743,0.1855,0.1861,0.1816,0.1899,0.1915,0.1941,0.2041,0.2058,0.2003,0.201,0.2139,0.2152,0.2163,0.2315,0.2224,0.2228,0.2231,0.2472,0.2477,0.2481,0,0,0,0,0,0,0.1717,0.1729,0.185,0.1803,0.182,0.1899,0.1927,0.1942,0.2008,0.2053,0.2071,0.2059,0.2141,0.2157,0.2248,0.2316,0.223,0.2234,0.2467,0.2473,0.2479,0.2517,0,0,0,0,0,0,0.1712,0.1728,0.1757,0.1802,0.1822,0.1902,0.1925,0.1943,0.2008,0.2019,0.2106,0.212,0.2144,0.2241,0.2252,0.2321,0.2238,0.2462,0.247,0.2477,0.2511,0.2524,0.2535,0,0,0,0,0,0.1707,0.1739,0.1758,0.1772,0.1854,0.1903,0.1916,0.1978,0.2009,0.2044,0.2113,0.212,0.2297,0.2247,0.2259,0.2331,0.2459,0.2468,0.2476,0.2506,0.2521,0.2534,0,0,0,0,0,0,0.1695,0.1754,0.1776,0.1828,0.1873,0.1922,0.1962,0.1998,0.2078,0.2103,0.2148,0.2167,0.2273,0.2302,0.2246,0.2431,0.2388,0.2399,0.2406,0.2421,0.2432,0.2462,0.2241,0,0,0,0,0,0.17,0.1743,0.1792,0.1836,0.186,0.1915,0.195,0.1991,0.2055,0.2094,0.2156,0.2237,0.2311,0.2365,0.2421,0.251,0.2547,0.2576,0.2588,0.2597,0.2635,0.2759,0.2784,0.251,0.251,0.251,0,0,0.1705,0.1745,0.1769,0.1836,0.1877,0.1935,0.1944,0.2007,0.2072,0.2096,0.2217,0.2267,0.2341,0.2446,0.25,0.2486,0.2686,0.2608,0.2615,0.2649,0.2771,0.2797,0.2821,0.2516,0.2515,0.2514,0,0,0.1726,0.1774,0.1814,0.1862,0.1929,0.1967,0.1993,0.2067,0.2121,0.2224,0.2266,0.2362,0.2477,0.2544,0.2592,0.2707,0.2732,0.274,0.2837,0.2955,0.2978,0.2999,0.303,0.3054,0.2761,0.2761,0.2761,0,0.1741,0.1796,0.1833,0.1889,0.1941,0.1989,0.2052,0.2108,0.2209,0.2272,0.228,0.2491,0.2529,0.2677,0.2729,0.2732,0.2786,0.2762,0.2968,0.299,0.3011,0.3038,0.3063,0.2764,0.2764,0.2763,0.2763,0,0.1785,0.1848,0.1878,0.1971,0.2028,0.209,0.2164,0.2239,0.2313,0.2383,0.2543,0.2608,0.2751,0.2773,0.2791,0.2971,0.2951,0.2948,0.2919,0.304,0.3061,0.3087,0.2768,0.2767,0.2766,0.2766,0,0,0.1795,0.189,0.1909,0.1959,0.2082,0.2125,0.2244,0.2363,0.246,0.2572,0.272,0.2846,0.2907,0.2969,0.3002,0.3106,0.3259,0.3112,0.3117,0.312,0.349,0.3234,0.3236,0.3309,0.3315,0.332,0.3424,0,0.1833,0.1918,0.1977,0.2089,0.2145,0.2241,0.2346,0.2465,0.2576,0.2725,0.2833,0.2995,0.2974,0.3074,0.3169,0.3252,0.3341,0.3229,0.3395,0.3398,0.3139,0.3264,0.2983,0.3034,0.3449,0.3453,0.3456,0,0.1874,0.1927,0.2022,0.2147,0.2185,0.2276,0.2457,0.2558,0.2764,0.2868,0.3046,0.3148,0.3337,0.33,0.3506,0.3449,0.3495,0.3528,0.3533,0.3311,0.3193,0.2996,0.3065,0.3499,0.3496,0.3493,0.349,0,0.1845,0.1968,0.2038,0.2087,0.2236,0.2324,0.2428,0.2621,0.2719,0.3001,0.3128,0.3341,0.3483,0.3602,0.3681,0.3643,0.3868,0.3809,0.3606,0.3585,0.3386,0.3335,0.3971,0.3971,0.3971,0.3971,0.397,0,0.1863,0.1929,0.2034,0.2079,0.2191,0.2321,0.2472,0.2618,0.2832,0.2986,0.3214,0.3373,0.3587,0.3726,0.3761,0.3753,0.3941,0.3652,0.3623,0.338,0.3331,0.3775,0.3751,0.3974,0.3973,0.3973,0.3972,0,0.1833,0.1898,0.1984,0.2129,0.2179,0.2273,0.2464,0.2568,0.2809,0.3024,0.3147,0.345,0.3663,0.3782,0.3974,0.3827,0.3866,0.3816,0.3464,0.3388,0.3471,0.3449,0.3591,0.3583,0.3577,0.3571,0.3567,0,0.1825,0.1863,0.1986,0.2029,0.2106,0.2241,0.2329,0.2548,0.267,0.3049,0.315,0.346,0.3615,0.3737,0.3614,0.3589,0.3801,0.3286,0.3134,0.3488,0.3448,0.3435,0.3421,0.2884,0.2875,0.2867,0.286,0,0.1798,0.1844,0.1888,0.1975,0.2064,0.2144,0.2303,0.2375,0.2664,0.2881,0.3172,0.3337,0.3424,0.3294,0.3214,0.314,0.3253,0.3108,0.3684,0.2977,0.2818,0.2778,0.279,0.279,0.2797,0.2802,0.2806,0.2808,0.1761,0.1771,0.1817,0.1904,0.1986,0.205,0.2116,0.2294,0.2478,0.2791,0.3001,0.3151,0.3046,0.2767,0.2668,0.2562,0.2717,0.2618,0.2647,0.2684,0.2536,0.2371,0.2228,0.2231,0.2235,0.2237,0.224,0,0.1663,0.1687,0.1744,0.1802,0.1836,0.196,0.2091,0.2186,0.2389,0.2582,0.2825,0.2509,0.2372,0.238,0.2034,0.1866,0.1877,0.1875,0.1946,0.2012,0.2072,0.19,0.142,0.1419,0.1417,0.1416,0,0,0.1596,0.1572,0.1599,0.1621,0.1716,0.1797,0.1879,0.207,0.2199,0.2289,0.2302,0.24,0.2296,0.187,0.1717,0.1598,0.1827,0.1516,0.2159,0.2317,0.2377,0.2457,0.2256,0,0,0,0,0]},{"header":{"parameterUnit":"m.s-1","parameterCategory":2,"la1":30.2991,"la2":30.254,"lo1":-89.0895,"lo2":-89.0444,"dy":0.0017,"dx":0.0017,"nx":28,"ny":28,"refTime":"2023-08-08T21:00:00:Z","depth":"2","parameterNumber":3,"parameterNumberName":"V-component_of_CURRENTS"},"data":[0,0,0,0,0,0,0,0,0,0,0,0,0,0,0,0,0,0,0,0,0,0,0,0,0,0,0,0,0,0,0,0,0,0,0,0,0,0,0,0,0,0,0,0,0,0,0,0,0,0,0,0,0,0,0,0,0,0,0.012,0.012,0,0.0037,0.0036,0.0035,-0.0059,-0.006,-0.0062,-0.0063,-0.0264,-0.0268,-0.0272,0,0,0,0,0,0,0,0,0,0,0,0,0,0.0187,0.0186,0.012,0.0119,0.0119,0.0038,0.0036,0.0035,-0.0059,-0.006,-0.0062,-0.0063,-0.0262,-0.0267,-0.0272,0,0,0,0,0,0,0,0,0,0,0,0,0,0.0135,0.0186,0.0121,0.0063,0.0057,0.0038,0.0036,0.0035,-0.0058,-0.006,-0.0062,-0.0064,-0.0261,-0.0267,-0.0273,-0.0274,0,0,-0.0292,-0.0295,0,0,0,0,0,0,0,0,0.0138,0.0133,0.0073,0.0067,0.0061,-0.0001,-0.0014,-0.0074,-0.0058,-0.0016,-0.0063,-0.0065,-0.0184,-0.0197,-0.0209,-0.0283,-0.0292,-0.0293,-0.0296,-0.0299,-0.0301,0,0,0,0,0,0,0,0.0142,0.0136,0.0086,0.0072,0.0065,0.0038,0.0029,-0.0025,-0.0092,-0.002,-0.0027,-0.0033,-0.0189,-0.0202,-0.0215,-0.0295,-0.0292,-0.0298,-0.0302,-0.0304,-0.0389,-0.0387,0,0,0,0,0,0,0.0158,0.0139,0.0088,0.0083,0.0097,0.0039,0.0028,0.0019,-0.0089,-0.0106,-0.0031,-0.0037,-0.0191,-0.0207,-0.0222,-0.0227,-0.0299,-0.0305,-0.0308,-0.039,-0.0388,-0.0387,0,0,0,0,0,0,0.016,0.0154,0.0092,0.0111,0.0101,0.004,0.0031,0.0019,-0.0005,-0.0096,-0.0116,-0.0043,-0.0193,-0.0213,-0.0275,-0.0236,-0.0308,-0.0313,-0.0392,-0.039,-0.0387,-0.024,0,0,0,0,0,0,0.0162,0.0155,0.0157,0.0112,0.0101,0.0094,0.0032,0.0019,-0.0004,-0.0013,-0.0113,-0.0133,-0.0196,-0.0265,-0.0281,-0.0246,-0.0318,-0.0394,-0.0391,-0.0388,-0.0247,-0.0233,-0.0221,0,0,0,0,0,0.0165,0.018,0.0158,0.0151,0.0104,0.0096,0.0089,0.0037,-0.0003,0.0005,-0.0075,-0.013,-0.0258,-0.0269,-0.0289,-0.0254,-0.0395,-0.0392,-0.0388,-0.0252,-0.0235,-0.0221,0,0,0,0,0,0,0.0211,0.0171,0.0145,0.0146,0.0128,0.0081,0.0079,0.0044,-0.001,-0.0031,-0.0125,-0.0149,-0.0188,-0.024,-0.0251,-0.0269,-0.0329,-0.033,-0.0219,-0.0204,-0.0192,-0.0154,-0.0324,0,0,0,0,0,0.0224,0.0222,0.0185,0.0188,0.0178,0.0129,0.0117,0.0086,0.0033,0.0007,-0.0059,-0.013,-0.0183,-0.0211,-0.0271,-0.0283,-0.0351,-0.0269,-0.0256,-0.0244,-0.0226,-0.0304,-0.0296,-0.0375,-0.0375,-0.0376,0,0,0.0242,0.0221,0.0218,0.0198,0.0171,0.0181,0.0116,0.0107,0.0114,-0.0007,-0.0027,-0.0098,-0.0181,-0.0199,-0.0218,-0.0239,-0.0258,-0.024,-0.023,-0.0218,-0.03,-0.0292,-0.0285,-0.0373,-0.0374,-0.0374,0,0,0.0286,0.0259,0.0272,0.0265,0.0241,0.022,0.0222,0.018,0.0156,0.0136,0.0048,0.0001,-0.0071,-0.0117,-0.0152,-0.0103,-0.0197,-0.0113,-0.0008,-0.0083,-0.0077,-0.0073,-0.0149,-0.0152,-0.0094,-0.0093,-0.0093,0,0.0304,0.0316,0.0279,0.0296,0.0298,0.0244,0.0269,0.0251,0.0198,0.019,0.0147,0.0051,-0.0027,-0.0046,-0.0025,-0.0072,-0.0133,-0.0059,-0.0066,-0.0063,-0.0062,-0.0141,-0.0147,-0.0086,-0.0087,-0.0087,-0.0088,0,0.036,0.0369,0.038,0.0382,0.0389,0.0401,0.0378,0.0376,0.0342,0.0322,0.0292,0.0195,0.0143,0.0121,0.0061,0.0055,0.0001,-0.0052,-0.0103,-0.0045,-0.0132,-0.0141,-0.0075,-0.0078,-0.008,-0.0082,0,0,0.0376,0.0411,0.041,0.0432,0.0433,0.0445,0.047,0.0479,0.0501,0.0453,0.0476,0.0389,0.0342,0.03,0.0222,0.0171,0.0124,0.0087,0.0079,0.0017,-0.0042,-0.0041,-0.0052,0.0068,0.0068,0.0067,-0.0108,0,0.0418,0.0477,0.0486,0.0545,0.0567,0.0554,0.0589,0.0594,0.0588,0.0603,0.0523,0.0515,0.041,0.0401,0.0328,0.018,0.0108,0.0177,-0.0094,-0.0101,-0.0103,-0.0059,-0.0058,-0.021,-0.0117,-0.0119,-0.012,0,0.0453,0.0489,0.0551,0.062,0.063,0.0661,0.0709,0.0739,0.0751,0.0753,0.0735,0.0688,0.0627,0.0526,0.0301,0.035,0.017,0.0044,0.0033,-0.002,-0.0115,-0.0255,-0.0231,-0.0137,-0.0135,-0.0134,-0.0133,0,0.0459,0.0535,0.0586,0.0604,0.0669,0.0694,0.0732,0.0767,0.0812,0.0857,0.0909,0.0816,0.0788,0.0571,0.0337,0.0313,0.008,-0.0002,-0.0181,-0.0184,-0.0261,-0.0269,-0.0183,-0.0182,-0.0182,-0.0181,-0.0181,0,0.0491,0.0529,0.0588,0.0608,0.0677,0.072,0.0794,0.0834,0.0907,0.0993,0.098,0.1034,0.08,0.066,0.0394,0.0106,0.0108,-0.0149,-0.0219,-0.0209,-0.0209,-0.021,-0.0211,-0.0188,-0.0187,-0.0185,-0.0184,0,0.0482,0.0519,0.057,0.0642,0.0669,0.071,0.0827,0.0907,0.0981,0.1099,0.1138,0.1174,0.1026,0.0767,0.0435,0.0199,-0.0088,-0.0208,-0.0164,-0.0224,-0.0329,-0.0321,-0.043,-0.0431,-0.0432,-0.0433,-0.0434,0,0.0483,0.051,0.0573,0.0611,0.0638,0.0716,0.0795,0.0905,0.1015,0.1188,0.1265,0.123,0.122,0.0782,0.0366,-0.0072,-0.011,-0.0333,-0.0381,-0.0291,-0.0351,-0.034,-0.033,-0.0447,-0.0447,-0.0448,-0.0448,0,0.0494,0.05,0.0546,0.0611,0.0683,0.08,0.0928,0.1029,0.1196,0.135,0.1525,0.1547,0.1176,0.079,0.0254,-0.0032,-0.025,-0.0359,-0.0292,-0.0354,-0.0313,-0.0369,-0.0358,-0.0454,-0.0453,-0.0453,-0.0453,-0.0452,0.0489,0.0517,0.0573,0.0641,0.0732,0.0899,0.1014,0.122,0.144,0.1691,0.1678,0.1672,0.1145,0.0449,0.0067,-0.0298,-0.0331,-0.05,-0.0496,-0.0493,-0.0433,-0.0392,-0.0539,-0.0539,-0.0539,-0.0539,-0.0539,0,0.0515,0.056,0.0624,0.0726,0.0844,0.0881,0.1125,0.1304,0.1606,0.1743,0.1886,0.1386,0.0957,0.0454,-0.0125,-0.049,-0.0498,-0.0547,-0.0515,-0.051,-0.0506,-0.0443,-0.0555,-0.0555,-0.0555,-0.0555,0,0,0.0541,0.0606,0.0646,0.0817,0.0886,0.1068,0.1209,0.1528,0.1677,0.1862,0.1795,0.1579,0.0912,0.0449,-0.0015,-0.0251,-0.027,-0.0279,-0.0246,-0.0151,-0.014,-0.048,-0.0379,0,0,0,0,0]}],[{"header":{"parameterUnit":"m.s-1","parameterCategory":2,"la1":30.2991,"la2":30.254,"lo1":-89.0895,"lo2":-89.0444,"dy":0.0017,"dx":0.0017,"nx":28,"ny":28,"refTime":"2023-08-08T21:00:00:Z","depth":"4","parameterNumber":2,"parameterNumberName":"U-component_of_CURRENTS"},"data":[0,0,0,0,0,0,0,0,0,0,0,0,0,0,0,0,0,0,0,0,0,0,0,0,0,0,0,0,0,0,0,0,0,0,0,0,0,0,0,0,0,0,0,0,0,0,0,0,0,0,0,0,0,0,0,0,0,0,0.0455,0.0456,0,0.0518,0.0518,0.0519,0.0601,0.0602,0.0604,0.0606,0.0698,0.0699,0.07,0,0,0,0,0,0,0,0,0,0,0,0,0,0.0411,0.0411,0.0455,0.0456,0.0457,0.0518,0.0518,0.0519,0.06,0.0602,0.0604,0.0606,0.0697,0.0698,0.07,0,0,0,0,0,0,0,0,0,0,0,0,0,0.0444,0.0411,0.0455,0.0507,0.0513,0.0518,0.0518,0.0519,0.06,0.0602,0.0605,0.0607,0.0697,0.0698,0.07,0.0659,0,0,0.0704,0.0705,0,0,0,0,0,0,0,0,0.0442,0.0445,0.0499,0.0504,0.051,0.0557,0.0537,0.0569,0.0599,0.0563,0.0606,0.0608,0.0654,0.0659,0.066,0.0663,0.0667,0.0704,0.0705,0.0706,0.0706,0,0,0,0,0,0,0,0.044,0.0443,0.0476,0.05,0.0507,0.0531,0.0537,0.0543,0.0592,0.0567,0.0574,0.0585,0.0657,0.0658,0.0663,0.0668,0.0704,0.0705,0.0706,0.0707,0.0803,0.0805,0,0,0,0,0,0,0.0435,0.044,0.0474,0.0479,0.0485,0.0529,0.0537,0.0537,0.0591,0.0603,0.0583,0.0589,0.0655,0.0661,0.0666,0.0757,0.0705,0.0707,0.0708,0.0801,0.0804,0.0805,0,0,0,0,0,0,0.0434,0.0437,0.0472,0.0465,0.0471,0.0528,0.0526,0.0537,0.0594,0.0604,0.0616,0.0637,0.0657,0.0665,0.0702,0.0756,0.0707,0.0709,0.0799,0.0802,0.0804,0.0851,0,0,0,0,0,0,0.0432,0.0436,0.0448,0.0464,0.0472,0.0509,0.0525,0.0536,0.0595,0.0605,0.0653,0.0661,0.0659,0.07,0.0704,0.0757,0.071,0.0797,0.0801,0.0804,0.0848,0.0855,0.0862,0,0,0,0,0,0.043,0.0439,0.0447,0.0453,0.0481,0.0511,0.0517,0.0563,0.0596,0.0623,0.0648,0.0662,0.0725,0.0701,0.0706,0.0761,0.0796,0.08,0.0803,0.0844,0.0854,0.0862,0,0,0,0,0,0,0.0431,0.0448,0.0459,0.0474,0.0505,0.0527,0.0565,0.0589,0.0629,0.065,0.0663,0.0672,0.0729,0.0734,0.0708,0.0801,0.0771,0.0776,0.0801,0.081,0.0817,0.0824,0.0711,0,0,0,0,0,0.0431,0.0447,0.0466,0.0486,0.0507,0.0543,0.0569,0.0594,0.0624,0.0648,0.0699,0.0733,0.0737,0.0766,0.0781,0.082,0.0793,0.0866,0.0873,0.0879,0.0889,0.086,0.0865,0.0818,0.0818,0.0818,0,0,0.0439,0.0452,0.0463,0.0489,0.0523,0.0551,0.0567,0.0618,0.0657,0.0648,0.0752,0.0759,0.0751,0.0796,0.0825,0.0815,0.0881,0.0884,0.0888,0.0895,0.0865,0.0869,0.0873,0.0821,0.082,0.082,0,0,0.0458,0.0479,0.0498,0.0522,0.0571,0.0589,0.0616,0.0677,0.0729,0.0791,0.0791,0.0823,0.0886,0.0874,0.0868,0.0922,0.0911,0.0959,0.1009,0.0982,0.0985,0.0987,0.096,0.096,0.0971,0.0971,0.0971,0,0.0474,0.0493,0.0513,0.0538,0.0574,0.0614,0.0652,0.069,0.0766,0.0808,0.0845,0.0908,0.0913,0.0909,0.0941,0.0938,0.0926,0.0972,0.0988,0.099,0.0991,0.0963,0.0962,0.0974,0.0974,0.0973,0.0973,0,0.0499,0.0526,0.0551,0.0592,0.0625,0.0673,0.0717,0.079,0.0868,0.0904,0.0978,0.0977,0.1015,0.1026,0.1003,0.1024,0.1013,0.0989,0.0959,0.0998,0.0967,0.0965,0.0978,0.0977,0.0976,0.0975,0,0,0.0503,0.0561,0.0571,0.0609,0.0665,0.0699,0.077,0.0841,0.0901,0.0987,0.1056,0.1074,0.11,0.1094,0.1077,0.1064,0.1062,0.1054,0.1051,0.1016,0.1014,0.0973,0.0966,0.1047,0.1047,0.1047,0.0987,0,0.0532,0.0589,0.0608,0.0682,0.0723,0.0777,0.0841,0.0903,0.0975,0.1057,0.1064,0.1119,0.1114,0.1141,0.1127,0.1076,0.1061,0.1081,0.0992,0.099,0.0939,0.0964,0.1047,0.0985,0.0985,0.0984,0.0984,0,0.054,0.0585,0.0667,0.0745,0.0774,0.084,0.0954,0.1005,0.108,0.1134,0.1175,0.1188,0.1191,0.1182,0.1123,0.1145,0.1098,0.1052,0.1048,0.0993,0.0946,0.094,0.0979,0.0979,0.098,0.098,0.098,0,0.0531,0.0617,0.0701,0.073,0.0828,0.0913,0.098,0.1061,0.1108,0.1189,0.1226,0.1232,0.125,0.1195,0.1119,0.1138,0.1029,0.1029,0.094,0.0936,0.0966,0.0965,0.098,0.098,0.0981,0.0981,0.0981,0,0.0536,0.0596,0.0734,0.0775,0.0902,0.0958,0.1073,0.1139,0.1203,0.1217,0.1279,0.1247,0.1262,0.1198,0.1125,0.1019,0.103,0.0954,0.092,0.099,0.0991,0.0964,0.0963,0.0978,0.0979,0.0979,0.098,0,0.0506,0.0587,0.0692,0.0843,0.0902,0.1006,0.1129,0.1174,0.1254,0.1266,0.1293,0.1287,0.12,0.1165,0.1055,0.1027,0.0916,0.0864,0.0937,0.0906,0.085,0.0853,0.0802,0.0801,0.0799,0.0798,0.0797,0,0.0493,0.0546,0.0737,0.0814,0.0912,0.105,0.1114,0.1208,0.1218,0.1222,0.1197,0.1171,0.1138,0.096,0.0923,0.0823,0.08,0.0798,0.0853,0.0861,0.0833,0.0838,0.0843,0.0794,0.0794,0.0793,0.0793,0,0.0462,0.056,0.0652,0.0808,0.0931,0.1014,0.111,0.1087,0.1127,0.1217,0.1096,0.1051,0.0954,0.0876,0.0832,0.0732,0.0843,0.0782,0.0786,0.0837,0.085,0.0825,0.0831,0.0787,0.0788,0.0789,0.0789,0,0.0452,0.0517,0.0646,0.0786,0.0917,0.0943,0.0984,0.0981,0.1001,0.1014,0.093,0.0872,0.0887,0.0816,0.0711,0.0691,0.0703,0.0738,0.0745,0.0751,0.0765,0.0776,0.0663,0,0,0,0,0,0.0431,0.0486,0.059,0.0728,0.0846,0.0915,0.0958,0.0966,0.0977,0.0891,0.0927,0.0813,0.0735,0.0682,0.0647,0.0672,0.069,0.0636,0.073,0.0757,0.0763,0.0787,0,0,0,0,0,0,0.0414,0.0513,0.0561,0.0655,0.0718,0.0813,0.0821,0.0815,0.0767,0.0789,0.0724,0.0832,0.0727,0.0749,0.0649,0.0648,0.0711,0.0642,0.0642,0.0753,0.0759,0.0764,0.0791,0,0,0,0,0]},{"header":{"parameterUnit":"m.s-1","parameterCategory":2,"la1":30.2991,"la2":30.254,"lo1":-89.0895,"lo2":-89.0444,"dy":0.0017,"dx":0.0017,"nx":28,"ny":28,"refTime":"2023-08-08T21:00:00:Z","depth":"4","parameterNumber":3,"parameterNumberName":"V-component_of_CURRENTS"},"data":[0,0,0,0,0,0,0,0,0,0,0,0,0,0,0,0,0,0,0,0,0,0,0,0,0,0,0,0,0,0,0,0,0,0,0,0,0,0,0,0,0,0,0,0,0,0,0,0,0,0,0,0,0,0,0,0,0,0,-0.0236,-0.0236,0,-0.0319,-0.032,-0.0321,-0.0399,-0.04,-0.0401,-0.0402,-0.053,-0.0533,-0.0535,0,0,0,0,0,0,0,0,0,0,0,0,0,-0.0185,-0.0185,-0.0236,-0.0237,-0.0238,-0.0319,-0.032,-0.0321,-0.0399,-0.04,-0.0401,-0.0403,-0.0529,-0.0532,-0.0535,0,0,0,0,0,0,0,0,0,0,0,0,0,-0.0231,-0.0185,-0.0235,-0.0286,-0.0292,-0.0318,-0.032,-0.0321,-0.0399,-0.04,-0.0402,-0.0403,-0.0528,-0.0532,-0.0536,-0.053,0,0,-0.0547,-0.0549,0,0,0,0,0,0,0,0,-0.0229,-0.0233,-0.0278,-0.0283,-0.0289,-0.035,-0.0349,-0.0393,-0.0398,-0.0358,-0.0402,-0.0404,-0.0473,-0.0481,-0.0493,-0.0536,-0.0541,-0.0547,-0.055,-0.0551,-0.0552,0,0,0,0,0,0,0,-0.0225,-0.023,-0.0269,-0.0279,-0.0285,-0.0319,-0.0327,-0.0358,-0.0407,-0.0362,-0.0368,-0.0376,-0.0477,-0.0489,-0.0497,-0.0543,-0.0547,-0.0551,-0.0553,-0.0554,-0.0725,-0.0727,0,0,0,0,0,0,-0.0211,-0.0227,-0.0266,-0.0271,-0.0262,-0.0319,-0.0327,-0.0329,-0.0406,-0.0419,-0.0375,-0.038,-0.0482,-0.0492,-0.0502,-0.0603,-0.0551,-0.0555,-0.0557,-0.0722,-0.0725,-0.0728,0,0,0,0,0,0,-0.0209,-0.0213,-0.0263,-0.0252,-0.026,-0.0318,-0.0319,-0.033,-0.0379,-0.0416,-0.043,-0.0417,-0.0484,-0.0497,-0.0557,-0.0605,-0.0556,-0.056,-0.072,-0.0723,-0.0726,-0.074,0,0,0,0,0,0,-0.0207,-0.0212,-0.0222,-0.025,-0.026,-0.0297,-0.0318,-0.033,-0.038,-0.0388,-0.0456,-0.0467,-0.0486,-0.0551,-0.056,-0.0609,-0.0563,-0.0717,-0.0721,-0.0725,-0.0737,-0.0743,-0.0749,0,0,0,0,0,-0.0205,-0.0208,-0.0221,-0.0227,-0.0267,-0.0298,-0.0307,-0.0353,-0.0381,-0.0403,-0.0451,-0.0467,-0.0586,-0.0555,-0.0566,-0.0617,-0.0715,-0.072,-0.0725,-0.0734,-0.0742,-0.0749,0,0,0,0,0,0,-0.0194,-0.0217,-0.0232,-0.0243,-0.0277,-0.0312,-0.0342,-0.0369,-0.0423,-0.0441,-0.048,-0.0494,-0.0572,-0.0591,-0.0556,-0.0683,-0.066,-0.0667,-0.0663,-0.0671,-0.0678,-0.0667,-0.0566,0,0,0,0,0,-0.0192,-0.0203,-0.0232,-0.0245,-0.0266,-0.031,-0.0335,-0.0362,-0.0405,-0.0433,-0.0499,-0.0556,-0.0595,-0.0629,-0.0675,-0.0729,-0.0717,-0.0777,-0.0784,-0.0789,-0.079,-0.0796,-0.0802,-0.0744,-0.0744,-0.0744,0,0,-0.0195,-0.0207,-0.0217,-0.0245,-0.028,-0.0306,-0.033,-0.0373,-0.041,-0.0436,-0.054,-0.0583,-0.0615,-0.0684,-0.0722,-0.0709,-0.0799,-0.0795,-0.0799,-0.0798,-0.0802,-0.0807,-0.0811,-0.0748,-0.0747,-0.0747,0,0,-0.0195,-0.0217,-0.0228,-0.0254,-0.0298,-0.0323,-0.0341,-0.0409,-0.0462,-0.0538,-0.0571,-0.0634,-0.0728,-0.0751,-0.0767,-0.0834,-0.0832,-0.0876,-0.0898,-0.0903,-0.0907,-0.091,-0.0889,-0.089,-0.0878,-0.0878,-0.0878,0,-0.0195,-0.021,-0.0239,-0.0256,-0.0285,-0.0333,-0.0358,-0.0407,-0.0496,-0.0544,-0.0581,-0.0718,-0.0751,-0.0795,-0.0829,-0.0846,-0.0844,-0.0858,-0.0907,-0.091,-0.0913,-0.089,-0.0891,-0.088,-0.0879,-0.0879,-0.0879,0,-0.0204,-0.0223,-0.0238,-0.0273,-0.0305,-0.0337,-0.0395,-0.0466,-0.0544,-0.0597,-0.0706,-0.0758,-0.0829,-0.0865,-0.0868,-0.092,-0.0908,-0.0909,-0.0875,-0.0918,-0.0893,-0.0894,-0.0881,-0.0881,-0.0881,-0.088,0,0,-0.0178,-0.0231,-0.0236,-0.0261,-0.0319,-0.0344,-0.0416,-0.0489,-0.0541,-0.066,-0.0733,-0.0823,-0.0868,-0.0889,-0.0916,-0.0938,-0.0952,-0.0943,-0.0943,-0.0899,-0.0953,-0.0899,-0.0894,-0.0965,-0.0966,-0.0967,-0.0921,0,-0.0181,-0.0202,-0.0237,-0.0281,-0.0305,-0.0373,-0.0433,-0.0506,-0.0589,-0.0679,-0.0752,-0.0821,-0.0867,-0.0896,-0.0933,-0.0954,-0.0959,-0.0964,-0.0938,-0.0937,-0.0865,-0.0895,-0.0969,-0.0921,-0.0922,-0.0922,-0.0922,0,-0.018,-0.0192,-0.0227,-0.029,-0.0311,-0.0354,-0.0452,-0.0505,-0.0613,-0.0677,-0.076,-0.0815,-0.0877,-0.0898,-0.0954,-0.0961,-0.0959,-0.097,-0.0968,-0.0913,-0.0884,-0.0877,-0.0922,-0.0922,-0.0922,-0.0922,-0.0922,0,-0.0144,-0.0191,-0.022,-0.0241,-0.0316,-0.0371,-0.0422,-0.0521,-0.0554,-0.066,-0.0683,-0.0791,-0.0816,-0.0871,-0.0899,-0.0934,-0.093,-0.0967,-0.0907,-0.0902,-0.0953,-0.0951,-0.0975,-0.0975,-0.0975,-0.0975,-0.0975,0,-0.0133,-0.0162,-0.0214,-0.0231,-0.0278,-0.0348,-0.0405,-0.0476,-0.0541,-0.0551,-0.0667,-0.0677,-0.0813,-0.0829,-0.0878,-0.0882,-0.0901,-0.091,-0.0892,-0.0961,-0.096,-0.0952,-0.095,-0.0973,-0.0974,-0.0974,-0.0974,0,-0.0119,-0.0145,-0.0181,-0.0248,-0.0265,-0.0309,-0.036,-0.0387,-0.0455,-0.0462,-0.0478,-0.0581,-0.0627,-0.071,-0.0771,-0.0815,-0.0837,-0.0811,-0.0842,-0.0827,-0.0819,-0.0818,-0.0792,-0.079,-0.0788,-0.0787,-0.0785,0,-0.0123,-0.0133,-0.0172,-0.0176,-0.0221,-0.0264,-0.0279,-0.0343,-0.0337,-0.0381,-0.0363,-0.0424,-0.0489,-0.0535,-0.0646,-0.0721,-0.0727,-0.0732,-0.0839,-0.0817,-0.0803,-0.0806,-0.0808,-0.0783,-0.0782,-0.0782,-0.0781,0,-0.0133,-0.015,-0.0171,-0.0151,-0.0171,-0.0174,-0.0192,-0.0172,-0.0215,-0.024,-0.0252,-0.0328,-0.0371,-0.0498,-0.0528,-0.0588,-0.0754,-0.0715,-0.0722,-0.0822,-0.0805,-0.0793,-0.0798,-0.0775,-0.0776,-0.0776,-0.0777,0,-0.0149,-0.0161,-0.0158,-0.0148,-0.0129,-0.0109,-0.0129,-0.0118,-0.012,-0.0152,-0.0137,-0.0239,-0.0306,-0.0418,-0.0447,-0.0511,-0.0572,-0.0617,-0.0631,-0.0639,-0.0627,-0.0586,-0.047,0,0,0,0,0,-0.016,-0.0158,-0.0144,-0.0139,-0.0099,-0.0086,-0.0068,-0.0082,-0.0079,-0.0064,-0.0106,-0.0143,-0.0265,-0.0333,-0.0389,-0.0444,-0.059,-0.0513,-0.0651,-0.074,-0.0747,-0.0757,0,0,0,0,0,0,-0.0174,-0.0167,-0.0149,-0.0102,-0.0076,-0.0051,-0.0035,-0.005,-0.0041,-0.005,-0.0111,-0.0144,-0.026,-0.0219,-0.0383,-0.0407,-0.0501,-0.057,-0.0571,-0.0735,-0.0742,-0.0748,-0.0761,0,0,0,0,0]}]]